Location: London
(51.5166°N, 0.1046°W)
Time: 18:16:48
(UTC+00:00)

ISS - Visible Passes

Search period start: 04 December 2016 00:00
Search period end: 14 December 2016 00:00
Orbit: 401 x 410 km, 51.6° (Epoch: 04 December)

Date Brightness Start Highest point End Pass type
(mag) Time Alt. Az. Time Alt. Az. Time Alt. Az.
04 Dec -1.6 17:17:17 10° SSW 17:19:53 22° SE 17:21:18 17° ESE visible
04 Dec -0.8 18:52:44 10° WSW 18:53:59 21° WSW 18:53:59 21° WSW visible
05 Dec -3.0 18:00:54 10° SW 18:04:08 52° SSE 18:04:09 52° SSE visible
06 Dec -2.3 17:09:11 10° SW 17:12:15 37° SSE 17:14:16 18° E visible
06 Dec -1.2 18:45:16 10° W 18:46:56 27° W 18:46:56 27° W visible
07 Dec -3.4 17:53:18 10° WSW 17:56:37 76° SSE 17:57:01 63° ESE visible
08 Dec -3.0 17:01:24 10° WSW 17:04:39 59° SSE 17:07:05 16° E visible
08 Dec -1.5 18:37:49 10° W 18:39:46 33° W 18:39:46 33° W visible
09 Dec -3.4 17:45:47 10° W 17:49:07 88° N 17:49:49 53° E visible
09 Dec 0.2 19:22:19 10° W 19:22:29 11° W 19:22:29 11° W visible
10 Dec -3.3 16:53:47 10° WSW 16:57:05 81° S 16:59:52 14° E visible
10 Dec -2.0 18:30:18 10° W 18:32:32 40° W 18:32:32 40° W visible
11 Dec -3.4 17:38:15 10° W 17:41:35 86° NNE 17:42:36 41° E visible
11 Dec 0.0 19:14:47 10° W 19:15:17 13° W 19:15:17 13° W visible
12 Dec -3.3 16:46:13 10° W 16:49:31 86° N 16:52:42 11° E visible
12 Dec -2.5 18:22:43 10° W 18:25:23 51° WSW 18:25:23 51° WSW visible
13 Dec -3.3 17:30:40 10° W 17:33:59 82° S 17:35:32 29° ESE visible
13 Dec -0.3 19:07:17 10° W 19:08:13 16° W 19:08:13 16° W visible
